sat.trackr.live / text

‹ back to catalog

STARLINK-4575

NORAD 53565 · 2022-101AQ

PAYLOAD ACTIVE UNKNOWN

§ Identity

Operator
Country
US
Launch date
2022-08-19
Launch site
AFETR
Launch vehicle
Mass (kg)
RCS (m²)

Purposes: comms

External: N2YO · Heavens-Above · Gunter

§ Orbital elements

Epoch: 2026-05-25T04:49:53.983200Z

Period
95.44 min
Inclination
53.2145°
Eccentricity
0.0001532
Mean motion
15.08849504 rev/d
Perigee alt
538.7 km
Apogee alt
540.8 km
Semi-major
6,917.9 km
B*
-1.0951e-4
RAAN
70.7982°
Arg perigee
84.9534°
Mean anomaly
275.1633°
Rev number
20,865

§ Raw data

STARLINK-45751 53565U 22101AQ  26145.20131925 -.00002031  00000+0 -10951-3 0  99972 53565  53.2145  70.7982 0001532  84.9534 275.1633 15.08849504208655

JSON: /api/v1/satellites/53565 · /tle

For live sub-satellite position, see the globe view (requires WebGL).

§ Visibility from observer

Set your observer location to see the next 7 days of passes ≥ 10°. The values pass through the URL so the page stays shareable.

No JS? Fill the form by hand. The geolocation button needs JavaScript.